Regional Weather Roundup
Issued by NWS

Home | Current Version | Previous Version | Text Only | Print | Product List | Glossary Off
Versions: 1 2 3 4 5 6 7 8 9 10 11 12 13 14 15 16 17 18 19 20 21 22 23 24 25 26 27 28 29 30 31 32 33 34 35 36 37 38 39 40 41 42 43 44 45 46 47 48 49 50

000
ASUS43 KMKX 221400
RWRWI

WISCONSIN REGIONAL WEATHER ROUNDUP
NATIONAL WEATHER SERVICE MILWAUKEE/SULLIVAN WI
800 AM CST WED FEB 22 2017

NOTE: "FAIR" INDICATES FEW OR NO CLOUDS BELOW 12,000 FEET WITH NO
SIGNIFICANT WEATHER AND/OR OBSTRUCTIONS TO VISIBILITY.

WIZ001-002-006>008-014>016-023>028-221500-
NORTHWEST WISCONSIN

CITY           SKY/WX    TMP DP  RH WIND       PRES   REMARKS
SUPERIOR ARPT  CLOUDY    32  32 100 CALM      29.65R FOG
ASHLAND        FAIR      34  33  96 S7        29.65R WCI  28
HAYWARD        FOG       34  32  92 NE6       29.62R VSB 1   WCI  29
SIREN          FOG       34  34  99 NE5       29.60F VSB 1/2 WCI  30
CUMBERLAND     CLOUDY    34  32  93 CALM      29.60R FOG
RICE LAKE      MOCLDY    34  34 100 CALM      29.62R FOG
CHETEK         MOCLDY    35  35 100 NW3       29.60S FOG
LADYSMITH      FAIR      36  35  94 N5        29.62S WCI  32
EAU CLAIRE     NOT AVBL
MENOMONIE      FAIR      38  35  89 CALM      29.60S
NEW RICHMOND   FAIR      35  35 100 CALM      29.61S FOG
OSCEOLA        FOG       34  34 100 SE3       29.62  VSB<1/4
$$

WIZ003>005-009-010-017-018-221500-
NORTH CENTRAL WISCONSIN

CITY           SKY/WX    TMP DP  RH WIND       PRES   REMARKS
MANITOWISH WTR FAIR      36  36 100 CALM      29.62F
ARBOR VITAE    FAIR      37  35  90 SE3         N/A
WOODRUFF       FAIR      37  35  90 SE3         N/A
RHINELANDER    FAIR      41  37  86 CALM      29.62F
EAGLE RIVER    FAIR      36  33  90 CALM      29.63F
LAND O LAKES   FAIR      38  34  84 CALM      29.65F
PHILLIPS       FAIR      35  35  99 CALM      29.62S
TOMAHAWK       FAIR      33  32  94 CALM      29.62F
MEDFORD        LGT RAIN  37  35  90 CALM      29.62R
MERRILL        NOT AVBL
$$

WIZ029-030-035-036-043>047-221500-
CENTRAL WISCONSIN

CITY           SKY/WX    TMP DP  RH WIND       PRES   REMARKS
WAUSAU         CLOUDY    41  36  82 SE8       29.58F
MOSINEE        MOSUNNY   39  37  93 CALM      29.63F
MARSHFIELD     FAIR      43  35  73 CALM      29.61F
STEVENS POINT  PTSUNNY   38  36  94 S3        29.65R
WAUPACA        FAIR      44  41  89 SE3       29.66F
WAUTOMA        FAIR      33  32  96 CALM      29.67F
WISC RAPIDS    FAIR      47  39  74 S5        29.64F
CAMP DOUGLAS   NOT AVBL
$$

WIZ011>013-019>022-031-037>040-048>050-221500-
NORTHEAST WISCONSIN

CITY           SKY/WX    TMP DP  RH WIND       PRES   REMARKS
ANTIGO         FAIR      37  34  87 CALM      29.64F
SHAWANO        FAIR      43  37  80 CALM      29.66F
OCONTO         FAIR      38  36  92 CALM      29.67S
STURGEON BAY   FAIR      43  40  89 SW6       29.69F
GREEN BAY      FAIR      43  42  97 S3        29.68F
MANITOWOC      FAIR      36  36 100 S5        29.71S FOG     WCI  32
APPLETON       PTSUNNY   39  39 100 S6        29.67F WCI  35
CLINTONVILLE   CLOUDY    37  36  93 SE9       29.63F WCI  31
OSHKOSH        FAIR      45  43  93 S8        29.69S FOG
$$

WIZ032>034-041-042-053>061-221500-
SOUTHWEST WISCONSIN

CITY           SKY/WX    TMP DP  RH WIND       PRES   REMARKS
LA CROSSE      FAIR      47  36  65 S9        29.63F
SPARTA         FAIR      51  37  58 S5        29.63F
VIROQUA        FAIR      47  36  64 S7        29.65F
BOSCOBEL       FAIR      37  35  92 CALM      29.69S
PRAIRIE DU CHI FAIR      42  35  76 CALM      29.68S
PLATTEVILLE    CLOUDY    44  44 100 S13       29.71F VSB<1/4
$$

WIZ056-057-062-063-064-067-068-221500-
SOUTH CENTRAL WISCONSIN

CITY           SKY/WX    TMP DP  RH WIND       PRES   REMARKS
REEDSBURG      FAIR      49  44  82 S8        29.67F
BARABOO/DELLS  FAIR      51  40  68 SW6       29.67F
LONE ROCK      NOT AVBL
MINERAL POINT  SNOW      45  45 100 S10       29.70F VSB<1/4
MADISON        FAIR      48  47  96 S9        29.71F FOG
MIDDLETON      FAIR      52  48  84 SW9G16    29.70F
WATERTOWN      CLOUDY    49  49 100 S10       29.73S FOG
MONROE         DRZL/FOG  48  48 100 S15       29.74F VSB<1/4
JANESVILLE     FOG       54  54 100 SW10      29.76S VSB 3/4
$$

WIZ051-052-058>065-066-070>072-221500-
SOUTHEAST WISCONSIN

CITY           SKY/WX    TMP DP  RH WIND       PRES   REMARKS
MILWAUKEE      CLOUDY    53  51  93 SW14G24   29.75F FOG
WAUKESHA       CLOUDY    52  52 100 SW7       29.76S FOG
MILWAUKEE/TIMM CLOUDY    52  50  93 SW8       29.76S FOG
RACINE         FOG       53  51  93 SW8       29.77S VSB 3/4
KENOSHA        FOG       52  52 100 SW14      29.77S VSB 1/2
FOND DU LAC    FAIR      50  44  80 S10       29.69F
SHEBOYGAN      FAIR      50  46  86 SW9       29.70F
WEST BEND      FAIR      50  50 100 SW7       29.73R
JUNEAU         FAIR      47  46  99 S8        29.73S FOG
$$

LSZ147-162-221500-
LAKE SUPERIOR

STATION/POSITION TIME  TEMP    WIND        PRES    WAVE
                       AIR SEA DIR/SP/G            HT/PER
                 (UTC) (F)     (DEG/KT/KT) (MB)    (FT/S)
DEVILS ISLAND    1300   36     240/  4/  4 1004.0F
PORT WING        1340   34     160/  2/  4 1003.7F
SAXON HARBOR     1330   33     330/  1/  3 1003.4F
$$

LMZ867-665-643>646-221500-
LAKE MICHIGAN

STATION/POSITION TIME  TEMP    WIND        PRES    WAVE
                       AIR SEA DIR/SP/G            HT/PER
                 (UTC) (F)     (DEG/KT/KT) (MB)    (FT/S)
CHAMBERS ISLAND  1340   45     170/  5/ 12 1004.7R
NORTHPORT PIER   1340   41     170/  3/  8 1005.4R
SISTER BAY       1305   37     150/  5/  8   N/A
ALGOMA LAKESHORE 1140          220/  7/ 10   N/A
KEWAUNEE LAKESHO 1330   38      CALM  /  3 1005.0F
SHEBOYGAN LAKESH 1300   37     180/ 14/ 14 1006.5F
PORT WASHINGTON  1330   45     250/  2/  3 1007.8S
MILWAUKEE LAKESH 1330   51     230/ 12/ 14   N/A
KENOSHA   LAKESH 1300   52     200/  8/ 12 1007.8
$$

TC  - TEMPERATURE IN CELSIUS
VSB - VISIBILITY IN STATUTE MILES
WCI - WIND CHILL INDEX
HX  - HEAT INDEX




USA.gov is the U.S. government's official web portal to all federal, state and local government web resources and services.